Flag for Spain

Past Weather in 40°14'40.3"N, 3°41'45.6"W, Spain — Yesterday and Last 2 Weeks

Now
79 °F

Sunny.


Feels Like: 78 °F
Forecast: 75 / 59 °F
Wind: 18 mph from Southwest

Location: Madrid / Cuatro Vientos

Current Time: Jun 6, 2020 at 8:21:16 pm

Latest Report: Jun 6, 2020 at 7:30 pm


Visibility: 10 mi

Pressure: 29.74 "Hg

Humidity: 28%

Dew Point: 43 °F

Location of 40°14'40.3"N, 3°41'45.6"WLocation

Past Weather in 40°14'40.3"N, 3°41'45.6"W — Graph

°F

40°14'40.3"N, 3°41'45.6"W Temperature Yesterday

Maximum temperature yesterday: 84 °F (at 5:30 pm)
Minimum temperature yesterday: 52 °F (at 5:30 am)
Average temperature yesterday: 69 °F

High & Low Weather Summary for the Past Weeks

 TemperatureHumidityPressure
High91 °F (May 23, 5:30 pm)100% (Jun 4, 9:00 am)30.36 "Hg (Jun 4, 9:00 am)
Low52 °F (Jun 5, 5:30 am)20% (May 30, 6:30 pm)29.68 "Hg (Jun 4, 5:30 am)
Average73 °F48%30.07 "Hg
* Reported May 22 7:00 pm — Jun 6 7:00 pm, 40°14'40.3"N, 3°41'45.6"W. Weather by CustomWeather, © 2020

Note: Actual official high and low records may vary slightly from our data, if they occured in-between our weather recording intervals... More about our weather records

40°14'40.3"N, 3°41'45.6"W Weather History for the Previous 24 Hours

Scroll right to see more
 ConditionsComfort  
Time TempWeatherWind HumidityBarometerVisibility
7:00 pm
Sat, Jun 6
81 °FPassing clouds.18 mph28%29.77 "HgN/A
6:30 pm81 °FPassing clouds.20 mph26%29.77 "HgN/A
6:00 pm82 °FPassing clouds.16 mph26%29.77 "HgN/A
5:30 pm81 °FPassing clouds.16 mph30%29.77 "HgN/A
5:00 pm77 °FPassing clouds.16 mph32%29.80 "HgN/A
4:30 pm81 °FScattered clouds.15 mph30%29.80 "HgN/A
4:00 pm82 °FScattered clouds.16 mph30%29.80 "HgN/A
3:30 pm81 °FScattered clouds.15 mph28%29.80 "HgN/A
3:00 pm81 °FScattered clouds.15 mph26%29.83 "HgN/A
2:30 pm79 °FPassing clouds.16 mph30%29.83 "HgN/A
2:00 pm79 °FPassing clouds.15 mph32%29.86 "HgN/A
1:30 pm77 °FPassing clouds.15 mph34%29.86 "HgN/A
1:00 pm79 °FPassing clouds.12 mph32%29.86 "HgN/A
12:30 pm77 °FPassing clouds.14 mph36%29.86 "HgN/A
12:00 pm77 °FPassing clouds.14 mph36%29.89 "HgN/A
11:30 am75 °FPassing clouds.16 mph41%29.89 "HgN/A
11:00 am73 °FPassing clouds.16 mph44%29.89 "HgN/A
10:30 am72 °FPassing clouds.14 mph50%29.89 "HgN/A
10:00 am72 °FPassing clouds.12 mph50%29.89 "HgN/A
9:30 am70 °FPassing clouds.8 mph57%29.92 "HgN/A
9:00 am68 °FPassing clouds.7 mph60%29.92 "HgN/A
8:30 am66 °FSunny.9 mph60%29.89 "Hg10 mi
8:00 am64 °FSunny.7 mph68%29.89 "Hg10 mi
7:30 am63 °FSunny.8 mph68%29.89 "Hg10 mi
7:00 am61 °FSunny.8 mph68%29.89 "Hg10 mi
6:30 am61 °FCool.7 mph68%29.89 "Hg6 mi
6:00 am61 °FClear.5 mph68%29.89 "Hg10 mi
5:30 am61 °FClear.7 mph63%29.89 "Hg10 mi
5:00 am64 °FClear.9 mph56%29.89 "Hg10 mi
4:30 am63 °FMild.7 mph59%29.89 "Hg4 mi
4:00 am61 °FCool.7 mph63%29.89 "Hg6 mi
3:30 am63 °FClear.7 mph59%29.89 "Hg10 mi
3:00 am66 °FClear.9 mph52%29.92 "Hg10 mi
2:30 am64 °FMild.8 mph56%29.92 "Hg6 mi
2:00 am68 °FMild.10 mph49%29.92 "Hg6 mi
1:30 am68 °FClear.9 mph53%29.92 "Hg10 mi
1:00 am68 °FClear.10 mph53%29.92 "Hg10 mi
12:30 am70 °FClear.8 mph53%29.92 "Hg10 mi
12:00 am70 °FMild.9 mph50%29.92 "Hg6 mi
11:30 pm
Fri, Jun 5
70 °FClear.8 mph50%29.92 "Hg10 mi
11:00 pm70 °FClear.8 mph46%29.89 "Hg10 mi
10:30 pm73 °FMild.9 mph41%29.89 "Hg6 mi
10:00 pm75 °FClear.9 mph39%29.89 "Hg10 mi
8:30 pm81 °FPassing clouds.10 mph28%29.89 "HgN/A
8:00 pm82 °FPassing clouds.8 mph28%29.86 "HgN/A
Weather by CustomWeather, © 2020

See weather overview

Advertising